Location: Bocianicha
(51.5066°N, 19.2563°E)
Time: 13:11:26
(UTC+00:00)

Cosmos 1025 Rocket - Pass Details

Date: 15 June 2025
Orbit: 588 x 609 km, 82.5° (Epoch: 18 July)

Event Time Altitude Azimuth Distance (km) Brightness Sun altitude
Exits shadow 00:37:05 16° 196° (SSW) 1,581 4.5 -11.1°
Maximum altitude 00:40:28 77° 281° (WNW) 612 3.0 -10.9°
Drops below altitude 10° 00:44:45 10° 8° (N) 1,937 6.9 -10.6°
Sets 00:46:59 0° 10° (N) 2,847 8.0 -10.4°
